Skip Page Navigation
NASA JPL Caltech
NASA Logo - Jet Propulsion Laboratory + View the NASA Portal
+ Near-Earth Object (NEO) Program
Search JPL
JPL Home Earth Solar System Stars & Galaxies Technology
JPL Solar System Dynamics
BODIES ORBITS EPHEMERIDES TOOLS PHYSICAL DATA DISCOVERY FAQ SITE MAP
JPL Small-Body Database Browser
Search: [ help ]  
7744 (1986 QA1)
Classification: Main-belt Asteroid          SPK-ID: 2007744
Ephemeris | Orbit Diagram | Orbital Elements | Physical Parameters | Discovery Circumstances | Close-Approach Data ]

[ show orbit diagram ]
Orbital Elements at Epoch 2457000.5 (2014-Dec-09.0) TDB
Reference: JPL 13 (heliocentric ecliptic J2000)
 Element Value Uncertainty (1-sigma)   Units 
e .03204913020840582 6.3623e-08  
a 2.659028412244581 1.9232e-08 AU
q 2.573808864432704 1.684e-07 AU
i 3.318217254036596 5.9008e-06 deg
node 51.42917851374541 0.0001086 deg
peri 118.8548230255937 0.00014341 deg
M 353.7774453449283 9.2309e-05 deg
tp 2457027.874683886473
(2015-Jan-05.37468389)
0.00040608 JED
period 1583.73638246759
4.34
1.7182e-05
4.704e-08
d
yr
n .227310557479958 2.4661e-09 deg/d
Q 2.744247960056458 1.9848e-08 AU
  Orbit Determination Parameters
   # obs. used (total)      1138  
   data-arc span      10443 days (28.59 yr)  
   first obs. used      1986-08-26  
   last obs. used      2015-03-30  
   planetary ephem.      DE431  
   SB-pert. ephem.      SB431-BIG16  
   condition code      0  
   fit RMS      .50035  
   data source      ORB  
   producer      Otto Matic  
   solution date      2015-Apr-07 16:29:27  

Additional Information
 Earth MOID = 1.58122 AU 
 T_jup = 3.383 
[ show covariance matrix ]

Ephemeris | Orbit Diagram | Orbital Elements | Physical Parameters | Discovery Circumstances | Close-Approach Data ]

Physical Parameter Table
Parameter Symbol Value Units Sigma Reference Notes
absolute magnitude H 13.5 mag n/a PDS3 (MPC 30256)  

7744 (1986 QA1)          Discovered 1986-Aug-26 by Debehogne, H. at La Silla
Reference: DISCOVERY.DBLast Updated: 2003-08-29

[ show close-approach data ]
Alternate Designations
 1986 QA1 = 1995 SB43 
Ephemeris | Orbit Diagram | Orbital Elements | Physical Parameters | Discovery Circumstances | Close-Approach Data ]
ABOUT SSD CREDITS/AWARDS PRIVACY/COPYRIGHT GLOSSARY LINKS
FirstGov 2015-May-25 01:26 UT
(server date/time)  
NASA Home Page
Site Manager:   Ryan S. Park
Webmaster  Alan B. Chamberlin